Location: Jaworzyna Śląska
(50.9128°N, 16.4318°E)
Time: 21:28:28
(UTC+01:00)

ISS - Pass Details

Date: 29 January 2019
Orbit: 403 x 411 km, 51.6° (Epoch: 18 February)

Event Time Altitude Azimuth Distance (km) Brightness Sun altitude
Rises 18:16:22 0° 257° (WSW) 2,332 2.0 -15.2°
Reaches altitude 10° 18:18:27 10° 258° (WSW) 1,474 0.4 -15.5°
Maximum altitude 18:21:46 90° 170° (S) 416 -3.9 -16.0°
Enters shadow 18:22:46 42° 79° (ENE) 596 -3.5 -16.2°
